TimeEDT,TemperatureF,Dew PointF,Humidity,Sea Level PressureIn,VisibilityMPH,Wind Direction,Wind SpeedMPH,Gust SpeedMPH,PrecipitationIn,Events,Conditions,WindDirDegrees,DateUTC
12:53 AM,61.0,48.0,62,29.97,10.0,SSE,10.4,-,N/A,,Scattered Clouds,160,2013-04-16 04:53:00
1:53 AM,60.1,48.0,64,29.96,10.0,South,13.8,-,N/A,,Mostly Cloudy,170,2013-04-16 05:53:00
2:53 AM,60.1,48.0,64,29.92,10.0,South,13.8,-,N/A,,Scattered Clouds,170,2013-04-16 06:53:00
3:53 AM,60.1,48.0,64,29.91,10.0,SSE,16.1,24.2,N/A,,Mostly Cloudy,160,2013-04-16 07:53:00
4:53 AM,59.0,48.9,69,29.93,10.0,South,18.4,27.6,N/A,,Partly Cloudy,170,2013-04-16 08:53:00
5:53 AM,59.0,50.0,72,29.93,10.0,SSE,19.6,-,N/A,,Mostly Cloudy,160,2013-04-16 09:53:00
6:53 AM,60.1,50.0,69,29.94,10.0,SSE,18.4,26.5,N/A,,Overcast,160,2013-04-16 10:53:00
8:38 AM,50.0,44.6,82,30.04,10.0,WNW,10.4,-,N/A,,Overcast,290,2013-04-16 12:38:00
8:53 AM,51.1,46.0,83,30.04,10.0,Variable,6.9,-,0.00,Rain,Light Rain,0,2013-04-16 12:53:00
9:34 AM,55.4,53.6,94,30.02,1.8,SE,4.6,-,0.08,Rain,Heavy Rain,130,2013-04-16 13:34:00
9:45 AM,57.2,53.6,88,30.01,3.0,South,6.9,-,0.11,Rain,Rain,170,2013-04-16 13:45:00
9:53 AM,59.0,54.0,83,30.00,6.0,SSE,8.1,-,0.12,Rain,Light Rain,160,2013-04-16 13:53:00
10:53 AM,62.1,55.9,80,30.03,9.0,South,12.7,-,0.02,Rain,Light Rain,180,2013-04-16 14:53:00
11:53 AM,66.0,57.9,75,30.02,10.0,SSW,17.3,24.2,0.00,,Partly Cloudy,200,2013-04-16 15:53:00
12:43 PM,51.8,48.2,88,30.02,1.5,NW,9.2,-,0.00,,Mostly Cloudy,310,2013-04-16 16:43:00
12:49 PM,50.0,48.2,94,30.04,1.5,WNW,9.2,-,0.00,,Overcast,300,2013-04-16 16:49:00
12:53 PM,48.9,48.0,97,30.04,0.8,WNW,6.9,-,0.00,,Overcast,290,2013-04-16 16:53:00
1:04 PM,48.2,46.4,93,30.05,0.8,West,8.1,-,N/A,,Overcast,260,2013-04-16 17:04:00
1:21 PM,48.2,46.4,93,30.07,1.2,WSW,10.4,-,N/A,,Overcast,250,2013-04-16 17:21:00
1:53 PM,48.9,48.0,97,30.06,1.2,West,10.4,-,N/A,,Overcast,260,2013-04-16 17:53:00
2:09 PM,48.2,48.2,100,30.07,0.5,WSW,8.1,-,N/A,Fog,Fog,250,2013-04-16 18:09:00
2:22 PM,48.2,48.2,100,30.09,2.5,WSW,9.2,-,N/A,,Overcast,250,2013-04-16 18:22:00
2:29 PM,48.2,46.4,93,30.08,6.0,WSW,9.2,-,N/A,,Overcast,250,2013-04-16 18:29:00
2:53 PM,48.0,46.0,93,30.10,8.0,West,6.9,-,N/A,,Overcast,270,2013-04-16 18:53:00
3:53 PM,46.0,45.0,96,30.11,6.0,West,8.1,-,N/A,,Overcast,280,2013-04-16 19:53:00
4:00 PM,46.4,44.6,93,30.11,6.0,West,5.8,-,N/A,,Overcast,280,2013-04-16 20:00:00
4:22 PM,46.4,44.6,93,30.12,7.0,West,5.8,-,N/A,,Overcast,260,2013-04-16 20:22:00
4:37 PM,46.4,44.6,93,30.13,5.0,WNW,9.2,-,N/A,,Overcast,290,2013-04-16 20:37:00
4:53 PM,46.0,45.0,96,30.14,5.0,West,5.8,-,N/A,,Overcast,280,2013-04-16 20:53:00
5:34 PM,48.2,46.4,93,30.14,1.8,SW,3.5,-,0.00,Rain,Light Rain,230,2013-04-16 21:34:00
5:44 PM,48.2,46.4,93,30.15,3.0,SW,4.6,-,0.00,,Overcast,230,2013-04-16 21:44:00
5:53 PM,48.9,48.0,97,30.16,4.0,SW,3.5,-,0.00,,Overcast,230,2013-04-16 21:53:00
6:25 PM,50.0,48.2,94,30.15,7.0,Calm,Calm,-,N/A,,Overcast,0,2013-04-16 22:25:00
6:53 PM,50.0,46.9,89,30.15,10.0,Calm,Calm,-,N/A,,Overcast,0,2013-04-16 22:53:00
7:53 PM,51.1,46.9,86,30.14,8.0,Calm,Calm,-,N/A,,Partly Cloudy,0,2013-04-16 23:53:00
8:53 PM,52.0,48.0,86,30.17,10.0,Calm,Calm,-,N/A,,Mostly Cloudy,0,2013-04-17 00:53:00
9:53 PM,51.1,48.0,89,30.17,7.0,East,3.5,-,N/A,,Mostly Cloudy,90,2013-04-17 01:53:00
10:53 PM,48.9,46.9,93,30.17,5.0,ESE,3.5,-,N/A,,Scattered Clouds,110,2013-04-17 02:53:00
11:53 PM,50.0,46.9,89,30.17,7.0,Calm,Calm,-,N/A,,Partly Cloudy,0,2013-04-17 03:53:00